This is the latest recevied weather packets stored in our database for station/object KO4DYK. If no packets are shown the sender has not sent any weather packets the latest 10 day(s).
| Time | Temp. | Humidity | Pressure | Rain* | Wind** | Luminosity | Snow |
|---|---|---|---|---|---|---|---|
| 1777394380 | 24.44° C | 93% | 1020 hPa | 0 mm | - | 206 W/m² | - |
| 1777394078 | 24.44° C | 93% | 1020 hPa | 0 mm | - | 216 W/m² | - |
| 1777393773 | 24.44° C | 94% | 1020 hPa | 0 mm | - | 247 W/m² | - |
| 1777393472 | 23.89° C | 93% | 1020.1 hPa | 0 mm | - | 273 W/m² | - |
| 1777393169 | 23.89° C | 94% | 1020.2 hPa | 0 mm | - | 252 W/m² | - |
| 1777392866 | 23.89° C | 94% | 1020.4 hPa | 0 mm | - | 137 W/m² | - |
| 1777392561 | 23.89° C | 94% | 1020.2 hPa | 0 mm | - | 127 W/m² | - |
| 1777392257 | 23.89° C | 93% | 1020.3 hPa | 0 mm | - | 152 W/m² | - |
| 1777391952 | 23.89° C | 93% | 1020.2 hPa | 0 mm | - | 126 W/m² | - |
| 1777391647 | 23.89° C | 93% | 1020.1 hPa | 0 mm | - | 124 W/m² | - |
| 1777391344 | 23.89° C | 93% | 1020.4 hPa | 0 mm | - | 114 W/m² | - |
| 1777391041 | 23.89° C | 93% | 1020.2 hPa | 0 mm | - | 100 W/m² | - |
| 1777390736 | 23.89° C | 93% | 1020.1 hPa | 0 mm | - | 125 W/m² | - |
| 1777390433 | 23.89° C | 93% | 1020.5 hPa | 0 mm | - | 167 W/m² | - |
| 1777390130 | 23.89° C | 92% | 1020.5 hPa | 0 mm | - | 200 W/m² | - |
| 1777389826 | 23.89° C | 92% | 1020.5 hPa | 0 mm | - | 271 W/m² | - |
| 1777389524 | 23.89° C | 93% | 1020.5 hPa | 0 mm | - | 235 W/m² | - |
| 1777389220 | 23.89° C | 93% | 1020.3 hPa | 0 mm | - | 303 W/m² | - |
| 1777388918 | 23.33° C | 93% | 1020.3 hPa | 0 mm | - | 217 W/m² | - |
| 1777388614 | 23.89° C | 92% | 1020.4 hPa | 0 mm | - | 212 W/m² | - |
| 1777388311 | 23.89° C | 91% | 1020.4 hPa | 0 mm | - | 235 W/m² | - |
| 1777388010 | 23.89° C | 92% | 1020.4 hPa | 0 mm | - | 250 W/m² | - |
| 1777387707 | 23.89° C | 92% | 1020.4 hPa | 0 mm | - | 257 W/m² | - |
| 1777387404 | 23.33° C | 92% | 1020.4 hPa | 0 mm | - | 243 W/m² | - |
| 1777387103 | 23.33° C | 91% | 1020.5 hPa | 0 mm | - | 347 W/m² | - |
* Rain latest hour (hover to see other rain measurements)
** Current wind speed in m/s (hover to see current wind gust speed)